Location: Dompnac
(44.5644°N, 4.1026°E)
Time: 11:39:48
(UTC+00:00)

Cosmos 1891 Rocket - Pass Details

Date: 20 January 2021
Orbit: 934 x 1018 km, 82.9° (Epoch: 24 February)

Event Time Altitude Azimuth Distance (km) Brightness Sun altitude
Rises 04:32:33 0° 173° (S) 3,672 7.6 -28.4°
Reaches altitude 10° 04:35:06 10° 169° (S) 2,715 6.9 -27.9°
Maximum altitude 04:41:09 57° 93° (E) 1,121 5.0 -26.9°
Drops below altitude 10° 04:47:08 10° 16° (NNE) 2,680 6.9 -25.8°
Sets 04:49:38 0° 12° (NNE) 3,620 7.6 -25.3°
